Data No.,UTC Date,UTC Time,Latitude,Longitude,Course(deg),Temp(degC),Sal(psu)
21,2008/7/5,5:53:00,33-53.1800N,137-08.9700E,174,24.938,---
22,2008/7/5,5:54:00,33-52.9300N,137-08.9900E,174,25.16,---
23,2008/7/5,5:55:00,33-52.6900N,137-09.0200E,174,25.063,---
24,2008/7/5,5:56:00,33-52.4500N,137-09.0500E,174,24.888,---
25,2008/7/5,5:57:00,33-52.1800N,137-09.0900E,173,24.74,---
26,2008/7/5,5:58:00,33-51.9500N,137-09.1100E,176,24.386,---
27,2008/7/5,5:59:00,33-51.7100N,137-09.1500E,167,24.259,---
28,2008/7/5,6:00:00,33-51.5200N,137-09.2600E,146,24.274,---
29,2008/7/5,6:01:00,33-51.3500N,137-09.4300E,142,24.242,---
30,2008/7/5,6:02:00,33-51.1700N,137-09.5800E,145,24.035,---
31,2008/7/5,6:03:00,33-50.9800N,137-09.7300E,148,23.976,---
32,2008/7/5,6:04:00,33-50.7800N,137-09.8600E,151,23.988,---
33,2008/7/5,6:05:00,33-50.5700N,137-09.9700E,159,23.991,---
34,2008/7/5,6:06:00,33-50.3500N,137-10.0500E,167,23.92,---
35,2008/7/5,6:07:00,33-50.1200N,137-10.0900E,171,23.791,---
36,2008/7/5,6:08:00,33-49.9000N,137-10.1300E,172,23.832,---
37,2008/7/5,6:09:00,33-49.6600N,137-10.1700E,172,23.766,---
38,2008/7/5,6:10:00,33-49.4200N,137-10.2100E,172,23.736,---
39,2008/7/5,6:11:00,33-49.1900N,137-10.2500E,171,23.785,---
40,2008/7/5,6:12:00,33-48.9400N,137-10.2900E,172,23.868,---
41,2008/7/5,6:13:00,33-48.7000N,137-10.3300E,172,23.797,---
42,2008/7/5,6:14:00,33-48.4600N,137-10.3700E,172,23.7,---
43,2008/7/5,6:15:00,33-48.2100N,137-10.4100E,172,24.002,---
44,2008/7/5,6:16:00,33-47.9700N,137-10.4400E,172,24.032,---
45,2008/7/5,6:17:00,33-47.7200N,137-10.4800E,172,24.479,---
46,2008/7/5,6:18:00,33-47.4800N,137-10.5200E,172,24.27,---
47,2008/7/5,6:19:00,33-47.2200N,137-10.5600E,172,24.441,---
48,2008/7/5,6:20:00,33-46.9700N,137-10.6000E,172,23.981,---
49,2008/7/5,6:21:00,33-46.7300N,137-10.6300E,173,24.252,---
50,2008/7/5,6:22:00,33-46.4800N,137-10.6700E,173,24.321,---
51,2008/7/5,6:23:00,33-46.2400N,137-10.7100E,172,24.377,---
52,2008/7/5,6:24:00,33-46.0000N,137-10.7500E,170,24.356,---
53,2008/7/5,6:25:00,33-45.7600N,137-10.8000E,170,24.196,---
54,2008/7/5,6:26:00,33-45.5200N,137-10.8600E,169,24.565,---
55,2008/7/5,6:27:00,33-45.2700N,137-10.9100E,169,24.113,---
56,2008/7/5,6:28:00,33-45.0300N,137-10.9700E,169,23.977,---
57,2008/7/5,6:29:00,33-44.8000N,137-11.0200E,169,23.697,---
58,2008/7/5,6:30:00,33-44.5500N,137-11.0800E,169,23.879,---
59,2008/7/5,6:31:00,33-44.3000N,137-11.1300E,169,23.771,---
60,2008/7/5,6:32:00,33-44.0600N,137-11.1900E,168,24.144,---
61,2008/7/5,6:33:00,33-43.8100N,137-11.2500E,168,24.007,---
62,2008/7/5,6:34:00,33-43.5700N,137-11.3000E,168,23.691,---
63,2008/7/5,6:35:00,33-43.3200N,137-11.3600E,168,24.009,---
64,2008/7/5,6:36:00,33-43.0800N,137-11.4200E,169,24.229,---
65,2008/7/5,6:37:00,33-42.8300N,137-11.4800E,168,24.437,---
66,2008/7/5,6:38:00,33-42.5800N,137-11.5400E,168,24.294,---
67,2008/7/5,6:39:00,33-42.3400N,137-11.6000E,168,24.349,---
68,2008/7/5,6:40:00,33-42.1000N,137-11.6600E,168,24.299,---
69,2008/7/5,6:41:00,33-41.8300N,137-11.7300E,168,24.265,---
70,2008/7/5,6:42:00,33-41.5900N,137-11.7900E,167,24.091,---
71,2008/7/5,6:43:00,33-41.3500N,137-11.8500E,167,24.159,---
72,2008/7/5,6:44:00,33-41.1000N,137-11.9200E,167,24.277,---
73,2008/7/5,6:45:00,33-40.8500N,137-11.9900E,167,24.345,---
74,2008/7/5,6:46:00,33-40.6100N,137-12.0500E,168,24.053,---
75,2008/7/5,6:47:00,33-40.3600N,137-12.1100E,168,23.844,---
76,2008/7/5,6:48:00,33-40.1200N,137-12.1800E,167,23.853,---
77,2008/7/5,6:49:00,33-39.8700N,137-12.2400E,168,24.045,---
78,2008/7/5,6:50:00,33-39.6200N,137-12.3100E,167,24.212,---
79,2008/7/5,6:51:00,33-39.3700N,137-12.3700E,168,24.193,---
80,2008/7/5,6:52:00,33-39.1200N,137-12.4300E,168,24.244,---
81,2008/7/5,6:53:00,33-38.8600N,137-12.5000E,168,24.344,---
82,2008/7/5,6:54:00,33-38.6200N,137-12.5600E,168,24.331,---
83,2008/7/5,6:55:00,33-38.3700N,137-12.6200E,167,24.387,---
84,2008/7/5,6:56:00,33-38.1200N,137-12.6900E,166,24.461,---
85,2008/7/5,6:57:00,33-37.8800N,137-12.7600E,166,24.463,---
86,2008/7/5,6:58:00,33-37.6300N,137-12.8300E,166,24.546,---
87,2008/7/5,6:59:00,33-37.3900N,137-12.9100E,166,24.624,---
88,2008/7/5,7:00:00,33-37.1400N,137-12.9800E,166,24.549,---
89,2008/7/5,7:01:00,33-36.8900N,137-13.0500E,166,24.533,---
90,2008/7/5,7:02:00,33-36.6500N,137-13.1200E,166,24.524,---
91,2008/7/5,7:03:00,33-36.3800N,137-13.2000E,166,24.474,---
92,2008/7/5,7:04:00,33-36.1400N,137-13.2700E,165,24.388,---
93,2008/7/5,7:05:00,33-35.8900N,137-13.3500E,165,24.024,---
94,2008/7/5,7:06:00,33-35.6500N,137-13.4300E,164,24.071,---
95,2008/7/5,7:07:00,33-35.4000N,137-13.5100E,164,24.175,---
96,2008/7/5,7:08:00,33-35.1600N,137-13.5900E,164,24.049,---
97,2008/7/5,7:09:00,33-34.9200N,137-13.6700E,164,24.045,---
98,2008/7/5,7:10:00,33-34.6800N,137-13.7500E,164,23.965,---
99,2008/7/5,7:11:00,33-34.4400N,137-13.8300E,164,23.913,---
100,2008/7/5,7:12:00,33-34.2000N,137-13.9100E,164,24.047,---
101,2008/7/5,7:13:00,33-33.9500N,137-13.9900E,164,23.926,---
102,2008/7/5,7:14:00,33-33.7100N,137-14.0700E,164,23.939,---
103,2008/7/5,7:15:00,33-33.4700N,137-14.1500E,164,23.969,---
104,2008/7/5,7:16:00,33-33.2200N,137-14.2300E,164,24.055,---
105,2008/7/5,7:17:00,33-32.9900N,137-14.3200E,163,24.442,---
106,2008/7/5,7:18:00,33-32.7400N,137-14.4000E,163,24.458,---
107,2008/7/5,7:19:00,33-32.5100N,137-14.4900E,163,24.902,---
108,2008/7/5,7:20:00,33-32.2700N,137-14.5800E,162,24.665,---
109,2008/7/5,7:21:00,33-32.0400N,137-14.6700E,162,24.993,---
110,2008/7/5,7:22:00,33-31.8000N,137-14.7600E,162,24.934,---
111,2008/7/5,7:23:00,33-31.5700N,137-14.8500E,161,24.865,---
112,2008/7/5,7:24:00,33-31.3300N,137-14.9400E,162,24.627,---
113,2008/7/5,7:25:00,33-31.0800N,137-15.0400E,162,24.653,---
114,2008/7/5,7:26:00,33-30.8500N,137-15.1200E,162,24.678,---
115,2008/7/5,7:27:00,33-30.6100N,137-15.2200E,161,24.86,---
116,2008/7/5,7:28:00,33-30.3800N,137-15.3100E,161,24.836,---
117,2008/7/5,7:29:00,33-30.1500N,137-15.4000E,162,24.661,---
118,2008/7/5,7:30:00,33-29.9100N,137-15.4900E,161,24.54,---
119,2008/7/5,7:31:00,33-29.6800N,137-15.5900E,160,24.652,---
120,2008/7/5,7:32:00,33-29.4500N,137-15.6800E,161,24.378,---
121,2008/7/5,7:33:00,33-29.2200N,137-15.7700E,161,24.373,---
122,2008/7/5,7:34:00,33-28.9900N,137-15.8600E,161,24.518,---
123,2008/7/5,7:35:00,33-28.7500N,137-15.9600E,161,24.519,---
124,2008/7/5,7:36:00,33-28.5200N,137-16.0500E,161,24.494,---
125,2008/7/5,7:37:00,33-28.2800N,137-16.1400E,161,24.66,---
126,2008/7/5,7:38:00,33-28.0600N,137-16.2400E,161,24.858,---
127,2008/7/5,7:39:00,33-27.8200N,137-16.3300E,161,24.654,---
128,2008/7/5,7:40:00,33-27.6000N,137-16.4200E,161,24.684,---
129,2008/7/5,7:41:00,33-27.3600N,137-16.5100E,161,24.539,---
130,2008/7/5,7:42:00,33-27.1300N,137-16.6000E,162,24.34,---
131,2008/7/5,7:43:00,33-26.9000N,137-16.6900E,162,24.359,---
132,2008/7/5,7:44:00,33-26.6700N,137-16.7800E,161,24.381,---
133,2008/7/5,7:45:00,33-26.4300N,137-16.8700E,161,24.47,---
134,2008/7/5,7:46:00,33-26.1900N,137-16.9600E,163,24.545,---
135,2008/7/5,7:47:00,33-25.9500N,137-17.0500E,163,24.414,---
136,2008/7/5,7:48:00,33-25.7200N,137-17.1200E,164,24.487,---
137,2008/7/5,7:49:00,33-25.4900N,137-17.2000E,164,24.567,---
138,2008/7/5,7:50:00,33-25.2600N,137-17.2800E,163,24.652,---
139,2008/7/5,7:51:00,33-25.0200N,137-17.3600E,164,24.678,---
140,2008/7/5,7:52:00,33-24.7800N,137-17.4400E,164,24.476,---
141,2008/7/5,7:53:00,33-24.5500N,137-17.5100E,164,24.507,---
142,2008/7/5,7:54:00,33-24.3100N,137-17.5900E,164,24.594,---
143,2008/7/5,7:55:00,33-24.0800N,137-17.6700E,164,24.527,---
144,2008/7/5,7:56:00,33-23.8500N,137-17.7400E,165,24.413,---
145,2008/7/5,7:57:00,33-23.6200N,137-17.8200E,165,24.256,---
146,2008/7/5,7:58:00,33-23.3900N,137-17.8900E,165,24.269,---
147,2008/7/5,7:59:00,33-23.1500N,137-17.9600E,165,24.234,---
148,2008/7/5,8:00:00,33-22.9200N,137-18.0300E,165,24.159,---
149,2008/7/5,8:01:00,33-22.6800N,137-18.1000E,165,24.168,---
150,2008/7/5,8:02:00,33-22.4500N,137-18.1700E,165,24.11,---
151,2008/7/5,8:03:00,33-22.2200N,137-18.2400E,165,24.1,---
152,2008/7/5,8:04:00,33-21.9900N,137-18.3100E,165,24.132,---
153,2008/7/5,8:05:00,33-21.7600N,137-18.3800E,165,24.19,---
154,2008/7/5,8:06:00,33-21.5300N,137-18.4500E,165,24.233,---
155,2008/7/5,8:07:00,33-21.2900N,137-18.5300E,165,24.165,---
156,2008/7/5,8:08:00,33-21.0400N,137-18.6000E,165,24.246,---
157,2008/7/5,8:09:00,33-20.8100N,137-18.6700E,166,24.387,---
158,2008/7/5,8:10:00,33-20.5800N,137-18.7400E,165,24.495,---
159,2008/7/5,8:11:00,33-20.3500N,137-18.8100E,165,24.508,---
160,2008/7/5,8:12:00,33-20.1100N,137-18.8800E,166,24.476,---
161,2008/7/5,8:13:00,33-19.8700N,137-18.9400E,166,24.456,---
162,2008/7/5,8:14:00,33-19.6500N,137-19.0100E,166,24.448,---
163,2008/7/5,8:15:00,33-19.4100N,137-19.0800E,166,24.301,---
164,2008/7/5,8:16:00,33-19.1700N,137-19.1500E,166,24.305,---
165,2008/7/5,8:17:00,33-18.9400N,137-19.2200E,165,24.267,---
166,2008/7/5,8:18:00,33-18.7000N,137-19.2900E,165,24.308,---
167,2008/7/5,8:19:00,33-18.4700N,137-19.3700E,165,24.407,---
168,2008/7/5,8:20:00,33-18.2400N,137-19.4400E,165,24.658,---
169,2008/7/5,8:21:00,33-17.9900N,137-19.5200E,164,24.818,---
170,2008/7/5,8:22:00,33-17.7600N,137-19.5900E,164,25.034,---
171,2008/7/5,8:23:00,33-17.5200N,137-19.6700E,164,25.222,---
172,2008/7/5,8:24:00,33-17.2800N,137-19.7500E,164,25.323,---
173,2008/7/5,8:25:00,33-17.0500N,137-19.8200E,165,25.461,---
174,2008/7/5,8:26:00,33-16.8200N,137-19.9000E,165,25.503,---
175,2008/7/5,8:27:00,33-16.5800N,137-19.9700E,164,25.662,---
176,2008/7/5,8:28:00,33-16.3500N,137-20.0500E,164,25.838,---
177,2008/7/5,8:29:00,33-16.0900N,137-20.1300E,164,25.877,---
178,2008/7/5,8:30:00,33-15.8600N,137-20.2000E,165,25.86,---
179,2008/7/5,8:31:00,33-15.6200N,137-20.2800E,165,25.934,---
180,2008/7/5,8:32:00,33-15.3800N,137-20.3500E,165,25.994,---
181,2008/7/5,8:33:00,33-15.1500N,137-20.4300E,165,26.072,---
182,2008/7/5,8:34:00,33-14.9100N,137-20.5000E,164,26.149,---
183,2008/7/5,8:35:00,33-14.6800N,137-20.5700E,167,26.155,---
184,2008/7/5,8:36:00,33-14.4400N,137-20.6300E,168,26.142,---
185,2008/7/5,8:37:00,33-14.2100N,137-20.6900E,168,26.125,---
186,2008/7/5,8:38:00,33-13.9700N,137-20.7500E,168,26.182,---
187,2008/7/5,8:39:00,33-13.7400N,137-20.8000E,169,26.152,---
188,2008/7/5,8:40:00,33-13.5000N,137-20.8600E,169,26.127,---
189,2008/7/5,8:41:00,33-13.2700N,137-20.9100E,168,26.115,---
190,2008/7/5,8:42:00,33-13.0300N,137-20.9700E,168,26.077,---
191,2008/7/5,8:43:00,33-12.8000N,137-21.0200E,168,26.039,---
192,2008/7/5,8:44:00,33-12.5700N,137-21.0800E,168,25.998,---
193,2008/7/5,8:45:00,33-12.3300N,137-21.1300E,168,25.941,---
194,2008/7/5,8:46:00,33-12.1000N,137-21.1800E,169,25.935,---
195,2008/7/5,8:47:00,33-11.8600N,137-21.2300E,169,25.963,---
196,2008/7/5,8:48:00,33-11.6300N,137-21.2800E,169,25.972,---
197,2008/7/5,8:49:00,33-11.4000N,137-21.3300E,170,25.961,---
198,2008/7/5,8:50:00,33-11.1700N,137-21.3800E,170,25.967,---
199,2008/7/5,8:51:00,33-10.9100N,137-21.4300E,169,25.969,---
200,2008/7/5,8:52:00,33-10.6800N,137-21.4800E,169,25.978,---
201,2008/7/5,8:53:00,33-10.4500N,137-21.5300E,170,26.006,---
202,2008/7/5,8:54:00,33-10.2200N,137-21.5800E,170,26.048,---
203,2008/7/5,8:55:00,33-09.9800N,137-21.6200E,170,26.075,---
204,2008/7/5,8:56:00,33-09.7500N,137-21.6700E,170,26.082,---
205,2008/7/5,8:57:00,33-09.5200N,137-21.7200E,170,26.09,---
206,2008/7/5,8:58:00,33-09.2900N,137-21.7700E,170,26.106,---
207,2008/7/5,8:59:00,33-09.0600N,137-21.8200E,169,26.126,---
208,2008/7/5,9:00:00,33-08.8200N,137-21.8700E,170,26.149,---
209,2008/7/5,9:01:00,33-08.5900N,137-21.9100E,170,26.142,---
210,2008/7/5,9:02:00,33-08.3500N,137-21.9600E,170,26.121,---
211,2008/7/5,9:03:00,33-08.1100N,137-22.0100E,170,26.113,---
212,2008/7/5,9:04:00,33-07.8800N,137-22.0600E,170,26.127,---
213,2008/7/5,9:05:00,33-07.6300N,137-22.1100E,169,26.208,---
214,2008/7/5,9:06:00,33-07.3900N,137-22.1600E,170,26.245,---
215,2008/7/5,9:07:00,33-07.1600N,137-22.2000E,169,26.258,---
216,2008/7/5,9:08:00,33-06.9200N,137-22.2500E,170,26.299,---
217,2008/7/5,9:09:00,33-06.6800N,137-22.3000E,170,26.35,---
218,2008/7/5,9:10:00,33-06.4400N,137-22.3500E,170,26.403,---
219,2008/7/5,9:11:00,33-06.1900N,137-22.4000E,170,26.421,---
220,2008/7/5,9:12:00,33-05.9500N,137-22.4500E,170,26.416,---
221,2008/7/5,9:13:00,33-05.6900N,137-22.5000E,170,26.395,---
222,2008/7/5,9:14:00,33-05.4400N,137-22.5500E,170,26.352,---
223,2008/7/5,9:15:00,33-05.2000N,137-22.6000E,170,26.335,---
224,2008/7/5,9:16:00,33-04.9500N,137-22.6500E,170,26.258,---
225,2008/7/5,9:17:00,33-04.7100N,137-22.7000E,170,26.251,---
226,2008/7/5,9:18:00,33-04.4600N,137-22.7500E,169,26.295,---
227,2008/7/5,9:19:00,33-04.2200N,137-22.8000E,169,26.322,---
228,2008/7/5,9:20:00,33-03.9800N,137-22.8500E,169,26.331,---
229,2008/7/5,9:21:00,33-03.7300N,137-22.9000E,170,26.323,---
230,2008/7/5,9:22:00,33-03.4900N,137-22.9500E,170,26.3,---
231,2008/7/5,9:23:00,33-03.2400N,137-23.0100E,169,26.297,---
232,2008/7/5,9:24:00,33-03.0000N,137-23.0600E,169,26.31,---
233,2008/7/5,9:25:00,33-02.7500N,137-23.1100E,169,26.307,---
234,2008/7/5,9:26:00,33-02.5100N,137-23.1700E,169,26.312,---
235,2008/7/5,9:27:00,33-02.2600N,137-23.2200E,169,26.309,---
236,2008/7/5,9:28:00,33-02.0200N,137-23.2700E,169,26.285,---
237,2008/7/5,9:29:00,33-01.7700N,137-23.3300E,169,26.298,---
238,2008/7/5,9:30:00,33-01.5300N,137-23.3800E,169,26.3,---
239,2008/7/5,9:31:00,33-01.2800N,137-23.4400E,169,26.31,---
240,2008/7/5,9:32:00,33-01.0400N,137-23.4900E,169,26.311,---
241,2008/7/5,9:33:00,33-00.7900N,137-23.5500E,169,26.29,---
242,2008/7/5,9:34:00,33-00.5500N,137-23.6000E,169,26.257,---
243,2008/7/5,9:35:00,33-00.2800N,137-23.6600E,169,26.263,---
244,2008/7/5,9:36:00,33-00.0400N,137-23.7100E,169,26.269,---
245,2008/7/5,9:37:00,32-59.7900N,137-23.7700E,169,26.298,---
246,2008/7/5,9:38:00,32-59.5500N,137-23.8300E,169,26.313,---
247,2008/7/5,9:39:00,32-59.3000N,137-23.8800E,169,26.289,---
248,2008/7/5,9:40:00,32-59.0500N,137-23.9400E,169,26.236,---
249,2008/7/5,9:41:00,32-58.8000N,137-23.9900E,169,26.234,---
250,2008/7/5,9:42:00,32-58.5500N,137-24.0500E,169,26.267,---
251,2008/7/5,9:43:00,32-58.3100N,137-24.1100E,169,26.313,---
252,2008/7/5,9:44:00,32-58.0600N,137-24.1600E,168,26.333,---
253,2008/7/5,9:45:00,32-57.8100N,137-24.2200E,168,26.355,---
254,2008/7/5,9:46:00,32-57.5500N,137-24.2800E,168,26.327,---
255,2008/7/5,9:47:00,32-57.3100N,137-24.3400E,168,26.3,---
256,2008/7/5,9:48:00,32-57.0600N,137-24.4000E,168,26.296,---
257,2008/7/5,9:49:00,32-56.8100N,137-24.4600E,168,26.279,---
258,2008/7/5,9:50:00,32-56.5600N,137-24.5300E,167,26.248,---
259,2008/7/5,9:51:00,32-56.3100N,137-24.5900E,168,26.216,---
260,2008/7/5,9:52:00,32-56.0600N,137-24.6500E,168,26.213,---
261,2008/7/5,9:53:00,32-55.8100N,137-24.7100E,168,26.213,---
262,2008/7/5,9:54:00,32-55.5600N,137-24.7800E,168,26.203,---
263,2008/7/5,9:55:00,32-55.3100N,137-24.8400E,167,26.21,---
264,2008/7/5,9:56:00,32-55.0600N,137-24.9100E,167,26.201,---
265,2008/7/5,9:57:00,32-54.7800N,137-24.9800E,167,26.208,---
266,2008/7/5,9:58:00,32-54.5400N,137-25.0400E,167,26.235,---
267,2008/7/5,9:59:00,32-54.2900N,137-25.1100E,167,26.278,---
268,2008/7/5,10:00:00,32-54.0300N,137-25.1800E,167,26.276,---
269,2008/7/5,10:01:00,32-53.7900N,137-25.2500E,166,26.258,---
270,2008/7/5,10:02:00,32-53.5400N,137-25.3200E,166,26.232,---
271,2008/7/5,10:03:00,32-53.2800N,137-25.3900E,166,26.226,---
272,2008/7/5,10:04:00,32-53.0400N,137-25.4600E,166,26.211,---
273,2008/7/5,10:05:00,32-52.7800N,137-25.5300E,167,26.195,---
274,2008/7/5,10:06:00,32-52.5300N,137-25.5900E,166,26.198,---
275,2008/7/5,10:07:00,32-52.2900N,137-25.6600E,166,26.215,---
276,2008/7/5,10:08:00,32-52.0300N,137-25.7300E,166,26.23,---
277,2008/7/5,10:09:00,32-51.7800N,137-25.8000E,166,26.262,---
278,2008/7/5,10:10:00,32-51.5300N,137-25.8700E,166,26.215,---
279,2008/7/5,10:11:00,32-51.2700N,137-25.9400E,166,26.155,---
280,2008/7/5,10:12:00,32-51.0200N,137-26.0100E,167,26.163,---
281,2008/7/5,10:13:00,32-50.7700N,137-26.0800E,166,26.206,---
282,2008/7/5,10:14:00,32-50.5200N,137-26.1500E,166,26.276,---
283,2008/7/5,10:15:00,32-50.2700N,137-26.2200E,166,26.348,---
284,2008/7/5,10:16:00,32-50.0200N,137-26.2900E,166,26.392,---
285,2008/7/5,10:17:00,32-49.7600N,137-26.3600E,166,26.409,---
286,2008/7/5,10:18:00,32-49.4900N,137-26.4400E,166,26.458,---
287,2008/7/5,10:19:00,32-49.2400N,137-26.5000E,167,26.483,---
288,2008/7/5,10:20:00,32-48.9800N,137-26.5700E,166,26.519,---
289,2008/7/5,10:21:00,32-48.7300N,137-26.6400E,169,26.523,---
290,2008/7/5,10:22:00,32-48.4800N,137-26.6900E,170,26.528,---
291,2008/7/5,10:23:00,32-48.2200N,137-26.7400E,169,26.538,---
292,2008/7/5,10:24:00,32-47.9700N,137-26.8000E,169,26.571,---
293,2008/7/5,10:25:00,32-47.7100N,137-26.8500E,169,26.591,---
294,2008/7/5,10:26:00,32-47.4600N,137-26.9100E,170,26.633,---
295,2008/7/5,10:27:00,32-47.2000N,137-26.9600E,170,26.696,---
296,2008/7/5,10:28:00,32-46.9400N,137-27.0100E,170,26.725,---
297,2008/7/5,10:29:00,32-46.6800N,137-27.0600E,171,26.762,---
298,2008/7/5,10:30:00,32-46.4200N,137-27.1000E,172,26.796,---
299,2008/7/5,10:31:00,32-46.1700N,137-27.1500E,172,26.83,---
300,2008/7/5,10:32:00,32-45.9100N,137-27.1900E,172,26.863,---
301,2008/7/5,10:33:00,32-45.6500N,137-27.2300E,172,26.892,---
302,2008/7/5,10:34:00,32-45.3900N,137-27.2700E,172,26.92,---
303,2008/7/5,10:35:00,32-45.1300N,137-27.3100E,172,26.952,---
304,2008/7/5,10:36:00,32-44.8700N,137-27.3500E,172,27.039,---
305,2008/7/5,10:37:00,32-44.6100N,137-27.3900E,172,27.079,---
306,2008/7/5,10:38:00,32-44.3500N,137-27.4300E,172,27.105,---
307,2008/7/5,10:39:00,32-44.0900N,137-27.4700E,172,27.114,---
308,2008/7/5,10:40:00,32-43.8100N,137-27.5100E,172,27.145,---
309,2008/7/5,10:41:00,32-43.5500N,137-27.5500E,172,27.184,---
310,2008/7/5,10:42:00,32-43.2900N,137-27.5900E,172,27.194,---
311,2008/7/5,10:43:00,32-43.0300N,137-27.6300E,172,27.238,---
312,2008/7/5,10:44:00,32-42.7600N,137-27.6700E,172,27.262,---
313,2008/7/5,10:45:00,32-42.5000N,137-27.7100E,172,27.267,---
314,2008/7/5,10:46:00,32-42.2400N,137-27.7500E,172,27.311,---
315,2008/7/5,10:47:00,32-41.9900N,137-27.7800E,172,27.363,---
316,2008/7/5,10:48:00,32-41.7300N,137-27.8200E,172,27.4,---
317,2008/7/5,10:49:00,32-41.4700N,137-27.8600E,172,27.446,---
318,2008/7/5,10:50:00,32-41.2100N,137-27.9000E,172,27.478,---
319,2008/7/5,10:51:00,32-40.9500N,137-27.9400E,172,27.514,---
320,2008/7/5,10:52:00,32-40.6900N,137-27.9800E,172,27.53,---
321,2008/7/5,10:53:00,32-40.4300N,137-28.0300E,172,27.562,---
322,2008/7/5,10:54:00,32-40.1700N,137-28.0700E,172,27.611,---
323,2008/7/5,10:55:00,32-39.9100N,137-28.1100E,172,27.631,---
324,2008/7/5,10:56:00,32-39.6500N,137-28.1500E,172,27.635,---
325,2008/7/5,10:57:00,32-39.4000N,137-28.1900E,172,27.655,---
326,2008/7/5,10:58:00,32-39.1400N,137-28.2300E,172,27.672,---
327,2008/7/5,10:59:00,32-38.8800N,137-28.2700E,172,27.681,---
328,2008/7/5,11:00:00,32-38.6200N,137-28.3100E,172,27.69,---
329,2008/7/5,11:01:00,32-38.3400N,137-28.3600E,172,27.712,---
330,2008/7/5,11:02:00,32-38.0900N,137-28.4000E,172,27.714,---
331,2008/7/5,11:03:00,32-37.8300N,137-28.4500E,170,27.713,---
332,2008/7/5,11:04:00,32-37.5700N,137-28.5000E,170,27.721,---
333,2008/7/5,11:05:00,32-37.3200N,137-28.5500E,170,27.707,---
334,2008/7/5,11:06:00,32-37.0600N,137-28.6000E,170,27.703,---
335,2008/7/5,11:07:00,32-36.8100N,137-28.6600E,170,27.678,---
336,2008/7/5,11:08:00,32-36.5500N,137-28.7100E,169,27.689,---
337,2008/7/5,11:09:00,32-36.3000N,137-28.7700E,169,27.699,---
338,2008/7/5,11:10:00,32-36.0500N,137-28.8200E,169,27.69,---
339,2008/7/5,11:11:00,32-35.7900N,137-28.8700E,170,27.716,---
340,2008/7/5,11:12:00,32-35.5300N,137-28.9300E,170,27.734,---
341,2008/7/5,11:13:00,32-35.2800N,137-28.9800E,169,27.745,---
342,2008/7/5,11:14:00,32-35.0200N,137-29.0300E,170,27.758,---
343,2008/7/5,11:15:00,32-34.7700N,137-29.0800E,170,27.756,---
344,2008/7/5,11:16:00,32-34.5100N,137-29.1400E,170,27.752,---
345,2008/7/5,11:17:00,32-34.2600N,137-29.1900E,170,27.757,---
346,2008/7/5,11:18:00,32-34.0100N,137-29.2400E,169,27.781,---
347,2008/7/5,11:19:00,32-33.7500N,137-29.2900E,169,27.784,---
348,2008/7/5,11:20:00,32-33.5000N,137-29.3500E,169,27.778,---
349,2008/7/5,11:21:00,32-33.2400N,137-29.4000E,169,27.787,---
350,2008/7/5,11:22:00,32-32.9900N,137-29.4500E,169,27.818,---
351,2008/7/5,11:23:00,32-32.7200N,137-29.5100E,169,27.872,---
352,2008/7/5,11:24:00,32-32.4700N,137-29.5700E,169,27.872,---
353,2008/7/5,11:25:00,32-32.2100N,137-29.6200E,170,27.831,---
354,2008/7/5,11:26:00,32-31.9600N,137-29.6700E,169,27.798,---
355,2008/7/5,11:27:00,32-31.7100N,137-29.7300E,169,27.758,---
356,2008/7/5,11:28:00,32-31.4500N,137-29.7800E,169,27.714,---
357,2008/7/5,11:29:00,32-31.2000N,137-29.8300E,169,27.683,---
358,2008/7/5,11:30:00,32-30.9500N,137-29.8900E,169,27.667,---
359,2008/7/5,11:31:00,32-30.7000N,137-29.9400E,170,27.659,---
360,2008/7/5,11:32:00,32-30.4400N,137-29.9900E,170,27.678,---
361,2008/7/5,11:33:00,32-30.2000N,137-30.0400E,170,27.697,---
362,2008/7/5,11:34:00,32-29.9400N,137-30.1000E,170,27.717,---
363,2008/7/5,11:35:00,32-29.6900N,137-30.1500E,170,27.709,---
364,2008/7/5,11:36:00,32-29.4400N,137-30.2000E,170,27.722,---
365,2008/7/5,11:37:00,32-29.1900N,137-30.2500E,170,27.695,---
366,2008/7/5,11:38:00,32-28.9400N,137-30.3000E,170,27.698,---
367,2008/7/5,11:39:00,32-28.6900N,137-30.3500E,170,27.708,---
368,2008/7/5,11:40:00,32-28.4400N,137-30.4000E,170,27.735,---
369,2008/7/5,11:41:00,32-28.1900N,137-30.4600E,170,27.751,---
370,2008/7/5,11:42:00,32-27.9500N,137-30.5000E,170,27.743,---
371,2008/7/5,11:43:00,32-27.6900N,137-30.5500E,170,27.75,---
372,2008/7/5,11:44:00,32-27.4500N,137-30.6000E,170,27.758,---
373,2008/7/5,11:45:00,32-27.1800N,137-30.6600E,170,27.751,---
374,2008/7/5,11:46:00,32-26.9300N,137-30.7100E,170,27.762,---
375,2008/7/5,11:47:00,32-26.6800N,137-30.7500E,171,27.766,---
376,2008/7/5,11:48:00,32-26.4300N,137-30.8000E,171,27.762,---
377,2008/7/5,11:49:00,32-26.1900N,137-30.8400E,171,27.768,---
378,2008/7/5,11:50:00,32-25.9300N,137-30.8900E,171,27.766,---
379,2008/7/5,11:51:00,32-25.6800N,137-30.9300E,171,27.774,---
380,2008/7/5,11:52:00,32-25.4300N,137-30.9800E,171,27.776,---
381,2008/7/5,11:53:00,32-25.1800N,137-31.0200E,171,27.775,---
382,2008/7/5,11:54:00,32-24.9300N,137-31.0700E,171,27.732,---
383,2008/7/5,11:55:00,32-24.6800N,137-31.1100E,172,27.727,---
384,2008/7/5,11:56:00,32-24.4300N,137-31.1500E,172,27.741,---
385,2008/7/5,11:57:00,32-24.1800N,137-31.1900E,172,27.741,---
386,2008/7/5,11:58:00,32-23.9200N,137-31.2300E,172,27.758,---
387,2008/7/5,11:59:00,32-23.6700N,137-31.2700E,172,27.767,---
388,2008/7/5,12:00:00,32-23.4300N,137-31.3100E,172,27.756,---
389,2008/7/5,12:01:00,32-23.1700N,137-31.3500E,172,27.736,---
390,2008/7/5,12:02:00,32-22.9200N,137-31.3900E,172,27.739,---
391,2008/7/5,12:03:00,32-22.6800N,137-31.4300E,171,27.763,---
392,2008/7/5,12:04:00,32-22.4200N,137-31.4700E,171,27.759,---
393,2008/7/5,12:05:00,32-22.1700N,137-31.5200E,171,27.759,---
394,2008/7/5,12:06:00,32-21.9000N,137-31.5700E,171,27.75,---
395,2008/7/5,12:07:00,32-21.6500N,137-31.6200E,170,27.752,---
396,2008/7/5,12:08:00,32-21.4000N,137-31.6600E,171,27.738,---
397,2008/7/5,12:09:00,32-21.1500N,137-31.7100E,171,27.744,---
398,2008/7/5,12:10:00,32-20.9000N,137-31.7600E,171,27.742,---
399,2008/7/5,12:11:00,32-20.6400N,137-31.8000E,171,27.754,---
400,2008/7/5,12:12:00,32-20.3900N,137-31.8500E,170,27.753,---
401,2008/7/5,12:13:00,32-20.1400N,137-31.9000E,171,27.702,---
402,2008/7/5,12:14:00,32-19.9000N,137-31.9400E,171,27.676,---
403,2008/7/5,12:15:00,32-19.6400N,137-31.9900E,171,27.678,---
404,2008/7/5,12:16:00,32-19.3900N,137-32.0300E,172,27.671,---
405,2008/7/5,12:17:00,32-19.1400N,137-32.0700E,172,27.667,---